FW6948 Weather Reports


time (UTC)temp
F
wind
direction
speed
knots
gust
knots
rain 1hr
in
rain 24hr
in
rain mn
in
humidity
%
barometer
mb
20260507144944 54 225 2.6 7.8 0.00 0.01 0.01 79 1016.8
20260507144435 54 225 3.5 6.1 0.00 0.01 0.01 79 1016.6
20260507143923 54 90 2.6 5.2 0.00 0.01 0.01 80 1016.4
20260507143413 54 225 1.7 6.1 0.00 0.01 0.01 83 1016.5
20260507142903 54 158 1.7 6.1 0.00 0.01 0.01 84 1016.4
20260507141844 55 248 3.5 12.2 0.00 0.01 0.01 82 1016.2
20260507140833 56 180 5.2 13.9 0.00 0.01 0.01 79 1016.0
20260507140313 55 225 5.2 13.9 0.00 0.01 0.01 80 1016.1
20260507135254 54 248 5.2 12.2 0.00 0.01 0.01 84 1016.5
20260507134742 54 113 6.1 12.2 0.00 0.01 0.01 84 1016.8
20260507134233 53 135 3.5 7.0 0.00 0.01 0.01 85 1016.8
20260507133213 53 180 1.7 5.2 0.00 0.01 0.01 85 1016.9
20260507132704 54 225 1.7 5.2 0.00 0.01 0.01 85 1016.6
20260507132152 54 113 1.7 7.8 0.00 0.01 0.01 85 1016.5
20260507131132 54 203 3.5 14.8 0.00 0.01 0.01 84 1016.3
20260507125601 53 203 3.5 12.2 0.00 0.01 0.01 88 1016.2
20260507125051 53 158 2.6 7.8 0.00 0.01 0.01 89 1016.0
20260507124031 54 23 1.7 13.9 0.00 0.01 0.01 88 1015.6
20260507123014 54 45 2.6 12.2 0.00 0.01 0.01 89 1015.3
20260507122500 54 45 2.6 13.9 0.00 0.01 0.01 89 1015.2
20260507121951 54 203 7.0 13.9 0.01 0.01 0.01 90 1015.2
20260507121441 54 68 2.6 9.6 0.01 0.01 0.01 91 1015.1
20260507120932 55 23 2.6 9.6 0.01 0.01 0.01 91 1015.2
20260507120420 55 135 3.5 13.0 0.01 0.01 0.01 92 1015.0
20260507115909 55 225 2.6 13.0 0.01 0.01 0.01 92 1015.0
20260507114850 56 158 4.3 13.0 0.01 0.01 0.01 93 1014.5
20260507114341 56 225 5.2 12.2 0.01 0.01 0.01 93 1014.2
20260507113829 57 225 2.6 12.2 0.01 0.01 0.01 93 1014.2
20260507113319 57 135 4.3 7.8 0.01 0.01 0.01 95 1013.9
20260507112259 58 135 1.7 11.3 0.01 0.01 0.01 96 1013.3
20260507111752 59 113 0.9 11.3 0.00 0.00 0.00 96 1012.8
20260507111239 60 225 3.5 7.8 0.00 0.00 0.00 97 1012.3
20260507110729 61 68 1.7 5.2 0.00 0.00 0.00 97 1012.2
20260507110218 60 158 0.0 3.5 0.00 0.00 0.00 97 1011.6
20260507105709 59 270 1.7 1.7 0.00 0.00 0.00 97 1011.5
20260507105159 59 113 1.7 1.7 0.00 0.00 0.00 97 1011.2
20260507104649 58 0 0.9 3.5 0.00 0.00 0.00 97 1011.2
20260507104138 58 0 0.9 6.1 0.00 0.00 0.00 97 1011.0
20260507103628 58 135 1.7 6.1 0.00 0.00 0.00 97 1010.8
20260507103119 57 23 1.7 1.7 0.00 0.00 0.00 97 1010.8
20260507102610 56 68 1.7 3.5 0.00 0.00 0.00 97 1010.5
20260507102058 56 315 0.0 3.5 0.00 0.00 0.00 96 1010.4
20260507101552 56 23 1.7 3.5 0.00 0.00 0.00 96 1010.1
20260507100528 57 45 1.7 1.7 0.00 0.00 0.00 96 1009.7
20260507100019 57 315 0.0 1.7 0.00 0.00 0.00 96 1009.3
20260507095507 57 23 0.9 1.7 0.00 0.00 0.00 96 1009.2
20260507094958 57 0 0.0 1.7 0.00 0.00 0.00 96 1009.2
20260507094444 57 45 0.9 3.5 0.00 0.00 0.00 96 1009.1
20260507093936 57 68 1.7 3.5 0.00 0.00 0.00 96 1009.0
20260507092917 57 135 0.9 1.7 0.00 0.00 0.00 96 1009.0
20260507092407 57 23 0.0 1.7 0.00 0.00 0.00 96 1009.0
20260507091856 57 68 0.9 1.7 0.00 0.00 0.00 96 1008.9
20260507091347 57 113 0.0 1.7 0.00 0.00 0.00 96 1008.9
20260507090327 56 113 0.0 1.7 0.00 0.00 0.00 96 1008.8
20260507085816 56 68 0.9 1.7 0.00 0.00 0.00 96 1008.7
20260507084756 56 23 0.0 0.0 0.00 0.00 0.00 96 1008.7
20260507084247 56 23 0.0 0.0 0.00 0.00 0.00 96 1008.5
20260507083736 56 23 0.0 0.0 0.00 0.00 0.00 96 1008.7
20260507083226 56 68 0.0 0.0 0.00 0.00 0.00 96 1008.5
20260507082716 56 45 0.0 0.0 0.00 0.00 0.00 96 1008.5
20260507081657 56 68 0.0 0.0 0.00 0.00 0.00 96 1008.4
20260507081145 56 23 0.0 0.0 0.00 0.00 0.00 96 1008.5
20260507080635 56 23 0.0 0.0 0.00 0.00 0.00 96 1008.8
20260507080125 55 23 0.0 1.7 0.00 0.00 0.00 96 1008.3
20260507075615 54 68 0.0 1.7 0.00 0.00 0.00 96 1008.3
20260507075106 53 68 0.0 1.7 0.00 0.00 0.00 96 1008.4
20260507074554 53 45 0.0 1.7 0.00 0.00 0.00 96 1008.8
20260507073534 52 68 0.0 1.7 0.00 0.00 0.00 95 1008.5
20260507073024 52 45 0.0 1.7 0.00 0.00 0.00 95 1008.4
20260507072516 52 68 1.7 1.7 0.00 0.00 0.00 95 1008.2
20260507071454 52 45 0.0 0.0 0.00 0.00 0.00 95 1008.3
20260507070944 52 23 0.0 0.0 0.00 0.00 0.00 95 1008.0
20260507070433 52 23 0.0 0.0 0.00 0.00 0.00 95 1008.4
20260507065925 52 315 0.0 0.0 0.00 0.00 0.00 95 1008.2
20260507064903 52 45 0.0 1.7 0.00 0.00 0.00 95 1008.7
20260507064352 52 90 0.0 1.7 0.00 0.00 0.00 94 1008.4
20260507063842 52 293 0.0 0.0 0.00 0.00 0.00 95 1008.7
20260507063334 53 0 0.0 0.0 0.00 0.00 0.00 95 1008.5
20260507062823 53 23 0.0 1.7 0.00 0.00 0.00 95 1008.8
20260507062312 53 113 0.0 1.7 0.00 0.00 0.00 95 1008.7
20260507061802 53 45 1.7 1.7 0.00 0.00 0.00 94 1008.8
20260507060742 53 68 0.0 0.0 0.00 0.00 0.00 94 1008.8
20260507060151 53 0 0.0 0.0 0.00 0.00 0.00 94 1008.9
20260507055919 53 68 0.0 3.5 0.00 0.00 0.00 94 1009.1
20260507055409 53 293 0.0 3.5 0.00 0.00 0.00 94 1009.0
20260507054859 53 68 0.9 1.7 0.00 0.00 0.00 94 1008.8
20260507054348 53 68 0.0 1.7 0.00 0.00 0.00 94 1008.9
20260507053839 53 135 0.9 1.7 0.00 0.00 0.00 93 1008.9
20260507053328 54 68 1.7 1.7 0.00 0.00 0.00 93 1008.8
20260507052818 54 23 0.0 1.7 0.00 0.00 0.00 94 1009.1
20260507051758 54 45 1.7 1.7 0.00 0.00 0.00 93 1008.9
20260507050738 55 68 0.0 1.7 0.00 0.00 0.00 92 1009.0
20260507050228 55 0 0.9 1.7 0.00 0.00 0.00 92 1009.1
20260507045718 55 68 0.0 1.7 0.00 0.00 0.00 92 1009.0
20260507045207 56 23 0.0 1.7 0.00 0.00 0.00 92 1009.3
20260507044659 56 68 0.0 1.7 0.00 0.00 0.00 92 1009.2
20260507044148 56 113 1.7 1.7 0.00 0.00 0.00 92 1009.2
20260507043637 56 203 0.0 1.7 0.00 0.00 0.00 92 1009.3
20260507043127 56 270 0.9 1.7 0.00 0.00 0.00 92 1009.3
20260507042110 56 45 0.0 1.7 0.00 0.00 0.00 92 1009.8
20260507041556 56 68 0.9 1.7 0.00 0.00 0.00 91 1009.9
20260507040536 57 315 0.0 3.5 0.00 0.00 0.00 91 1010.0
20260507040026 57 248 1.7 3.5 0.00 0.00 0.00 92 1009.8
20260507035518 57 68 0.9 3.5 0.00 0.00 0.00 91 1009.7
20260507035006 57 293 0.9 3.5 0.00 0.00 0.00 92 1009.9
20260507033946 56 68 1.7 1.7 0.00 0.00 0.00 89 1009.9
20260507033436 56 45 1.7 1.7 0.00 0.00 0.00 87 1009.9
20260507032927 57 23 0.9 3.5 0.00 0.00 0.00 84 1010.1
20260507032415 57 113 0.0 5.2 0.00 0.00 0.00 82 1010.1
20260507031906 58 315 0.9 5.2 0.00 0.00 0.00 81 1009.9
20260507031355 57 45 1.7 5.2 0.00 0.00 0.00 79 1010.0
20260507030845 58 180 1.7 3.5 0.00 0.00 0.00 76 1009.3
20260507030337 59 203 0.9 13.9 0.00 0.00 0.00 74 1009.0
20260507025825 60 338 0.9 13.9 0.00 0.00 0.00 73 1008.7
20260507025314 62 225 3.5 9.6 0.00 0.00 0.00 67 1008.4
20260507024805 61 68 1.7 5.2 0.00 0.00 0.00 67 1008.2
20260507024255 60 45 2.6 5.2 0.00 0.00 0.00 64 1008.7
20260507023745 59 23 1.7 3.5 0.00 0.00 0.00 76 1008.4
20260507023234 59 45 2.6 3.5 0.00 0.00 0.00 77 1008.3
20260507022724 59 68 2.6 3.5 0.00 0.00 0.00 71 1008.4
20260507022214 57 45 2.6 3.5 0.00 0.00 0.00 75 1008.2
20260507021704 56 45 1.7 3.5 0.00 0.00 0.00 90 1008.3
20260507021155 56 113 1.7 3.5 0.00 0.00 0.00 92 1008.7
20260507020644 55 23 1.7 3.5 0.00 0.00 0.00 93 1008.3
20260507020134 56 135 1.7 5.2 0.00 0.00 0.00 93 1008.5
20260507015623 56 0 2.6 5.2 0.00 0.00 0.00 93 1008.8
20260507015113 56 0 2.6 3.5 0.00 0.00 0.00 92 1008.8
20260507014605 56 0 2.6 3.5 0.00 0.00 0.00 92 1008.9
20260507014053 58 23 1.7 3.5 0.00 0.00 0.00 92 1009.2
20260507013543 58 0 1.7 3.5 0.00 0.00 0.00 92 1009.2
20260507013033 59 23 1.7 1.7 0.00 0.00 0.00 93 1009.5
20260507012523 59 45 1.7 3.5 0.00 0.00 0.00 93 1009.7
20260507012014 59 338 0.0 3.5 0.00 0.00 0.00 93 1009.7
20260507011503 60 0 1.7 3.5 0.00 0.00 0.00 93 1009.5
20260507010953 60 0 1.7 3.5 0.00 0.00 0.00 94 1009.8
20260507010443 61 0 0.9 3.5 0.00 0.00 0.00 94 1009.9
20260507005424 61 23 0.9 3.5 0.00 0.00 0.00 94 1010.0
20260507004914 61 45 1.7 3.5 0.00 0.00 0.00 94 1009.8
20260507004402 60 68 0.0 1.7 0.00 0.00 0.00 93 1010.1
20260507003853 61 45 0.0 3.5 0.00 0.00 0.00 93 1010.1
20260507003342 61 338 0.9 3.5 0.00 0.00 0.00 94 1009.9
20260507002322 61 45 1.7 3.5 0.00 0.00 0.00 93 1010.2
20260507001812 61 0 0.9 3.5 0.00 0.00 0.00 93 1010.0
20260507001305 61 68 1.7 3.5 0.00 0.00 0.00 93 1010.2
20260507000751 61 23 1.7 1.7 0.00 0.00 0.00 92 1010.2
20260507000243 62 248 0.0 1.7 0.00 0.00 0.00 92 1010.1
20260506235731 62 203 1.7 3.5 0.00 0.00 0.00 93 1010.2
20260506235220 62 338 0.0 3.5 0.00 0.00 0.00 93 1010.3
20260506234711 62 68 1.7 5.2 0.00 0.00 0.00 93 1010.5
20260506234200 62 248 0.0 6.1 0.00 0.00 0.00 93 1010.4
20260506233652 62 68 1.7 6.1 0.00 0.00 0.00 92 1010.8
20260506233140 63 270 1.7 3.5 0.00 0.00 0.00 92 1010.5
20260506232630 63 135 1.7 1.7 0.00 0.00 0.00 91 1010.3
20260506232120 64 338 0.9 1.7 0.00 0.00 0.00 91 1010.3
20260506231610 64 23 0.9 3.5 0.00 0.00 0.00 91 1010.7
20260506231102 64 45 0.9 3.5 0.00 0.00 0.00 90 1010.5
20260506230550 64 338 1.7 3.5 0.00 0.00 0.00 90 1010.7
20260506230039 65 45 0.0 1.7 0.00 0.00 0.00 90 1010.7
20260506225530 65 23 0.9 1.7 0.00 0.00 0.00 90 1010.5
20260506225019 65 0 0.0 1.7 0.00 0.00 0.00 89 1010.5
20260506223959 66 90 0.9 1.7 0.00 0.00 0.00 88 1010.4
20260506222939 67 23 0.0 1.7 0.00 0.00 0.00 87 1010.4
20260506222428 67 23 0.0 3.5 0.00 0.00 0.00 87 1010.1
20260506221409 68 45 0.0 1.7 0.00 0.00 0.00 86 1010.1
20260506220859 68 45 0.9 1.7 0.00 0.00 0.00 85 1010.2
20260506220348 69 158 1.7 1.7 0.00 0.00 0.00 84 1010.2
20260506215839 69 90 0.9 1.7 0.00 0.00 0.00 83 1009.9
20260506215330 70 270 0.9 1.7 0.00 0.00 0.00 81 1010.0
20260506214818 71 23 0.0 1.7 0.00 0.00 0.00 81 1009.9
20260506214308 71 45 0.0 3.5 0.00 0.00 0.00 80 1009.7
20260506213800 72 90 0.9 3.5 0.00 0.00 0.00 80 1009.9
20260506213248 73 45 1.7 1.7 0.00 0.00 0.00 79 1009.8
20260506212739 73 0 0.0 1.7 0.00 0.00 0.00 77 1009.9
20260506212228 73 293 0.0 1.7 0.00 0.00 0.00 77 1009.9
20260506211718 74 293 0.9 3.5 0.00 0.00 0.00 76 1010.0
20260506211207 74 45 1.7 3.5 0.00 0.00 0.00 76 1009.7
20260506210657 74 23 1.7 3.5 0.00 0.00 0.00 75 1009.8
20260506205639 75 315 1.7 3.5 0.00 0.00 0.00 74 1009.7
20260506205126 75 23 1.7 3.5 0.00 0.00 0.00 73 1009.8
20260506204617 76 23 0.9 3.5 0.00 0.00 0.00 73 1009.8
20260506204106 76 45 0.9 5.2 0.00 0.00 0.00 72 1009.4
20260506203558 76 45 1.7 6.1 0.00 0.00 0.00 72 1009.1
20260506203047 77 45 1.7 6.1 0.00 0.00 0.00 71 1009.5
20260506202537 77 113 1.7 5.2 0.00 0.00 0.00 72 1009.1
20260506202027 77 68 0.9 5.2 0.00 0.00 0.00 71 1009.2
20260506201517 77 0 1.7 5.2 0.00 0.00 0.00 71 1009.1
20260506201008 78 293 1.7 6.1 0.00 0.00 0.00 70 1009.1
20260506200456 78 45 1.7 6.1 0.00 0.00 0.00 70 1009.0
20260506195945 77 315 1.7 7.0 0.00 0.00 0.00 70 1009.0
20260506194925 78 23 3.5 5.2 0.00 0.00 0.00 70 1009.4
20260506194417 78 45 3.5 7.8 0.00 0.00 0.00 69 1009.2
20260506193905 77 315 0.9 7.8 0.00 0.00 0.00 70 1009.2
20260506193401 77 0 3.5 7.8 0.00 0.00 0.00 68 1009.2
20260506192845 78 315 2.6 7.8 0.00 0.00 0.00 69 1009.3
20260506192334 78 45 3.5 6.1 0.00 0.00 0.00 69 1009.2
20260506191314 78 0 3.5 7.8 0.00 0.00 0.00 68 1009.2
20260506190805 78 45 1.7 7.8 0.00 0.00 0.00 69 1009.2
20260506190254 78 293 0.9 7.8 0.00 0.00 0.00 69 1009.3
20260506185744 78 113 3.5 7.8 0.00 0.00 0.00 68 1009.4
20260506185236 79 45 3.5 7.8 0.00 0.00 0.00 67 1009.3
20260506184724 79 68 4.3 7.8 0.00 0.00 0.00 67 1009.5
20260506184215 80 68 1.7 6.1 0.00 0.00 0.00 69 1009.3
20260506183712 79 0 1.7 7.0 0.00 0.00 0.00 68 1009.3
20260506183154 79 45 1.7 7.0 0.00 0.00 0.00 67 1009.7
20260506182645 79 68 3.5 7.0 0.00 0.00 0.00 67 1009.8
20260506182134 79 270 1.7 7.0 0.00 0.00 0.00 69 1009.7
20260506181624 79 45 1.7 7.0 0.00 0.00 0.00 67 1009.4
20260506181114 79 23 3.5 7.0 0.00 0.00 0.00 67 1009.4
20260506180056 79 45 1.7 6.1 0.00 0.00 0.00 68 1009.7
20260506175544 79 338 1.7 7.0 0.00 0.00 0.00 65 1010.0
20260506175033 80 135 3.5 7.0 0.00 0.00 0.00 65 1010.1
20260506174522 80 68 3.5 7.0 0.00 0.00 0.00 65 1010.1
20260506174012 80 23 1.7 7.0 0.00 0.00 0.00 66 1010.0
20260506173504 80 23 3.5 6.1 0.00 0.00 0.00 65 1010.1
20260506172952 80 45 1.7 7.0 0.00 0.00 0.00 64 1010.1
20260506172443 80 338 3.5 7.0 0.00 0.00 0.00 63 1010.1
20260506171423 80 45 2.6 6.1 0.00 0.00 0.00 62 1010.2
20260506170913 80 315 1.7 6.1 0.00 0.00 0.00 62 1010.3
20260506165341 80 23 3.5 7.0 0.00 0.00 0.00 59 1011.0
20260506164832 80 338 3.5 6.1 0.00 0.00 0.00 58 1010.9
20260506164323 80 338 2.6 6.1 0.00 0.00 0.00 60 1011.2
20260506163301 79 23 1.7 5.2 0.00 0.00 0.00 61 1011.0
20260506162751 79 270 0.0 7.8 0.00 0.00 0.00 60 1011.1
20260506162241 79 270 1.7 7.8 0.00 0.00 0.00 57 1011.2
20260506161735 79 0 2.6 7.0 0.00 0.00 0.00 58 1011.4
20260506161220 78 23 3.5 7.0 0.00 0.00 0.00 57 1011.1
20260506160714 78 90 1.7 6.1 0.00 0.00 0.00 60 1011.5
20260506160201 78 315 2.6 7.0 0.00 0.00 0.00 61 1011.6
20260506155650 78 315 3.5 7.0 0.00 0.00 0.00 62 1011.8
20260506155142 78 315 3.5 7.0 0.00 0.00 0.00 60 1011.6
20260506153610 78 135 2.6 7.8 0.00 0.00 0.00 64 1012.0
20260506153100 78 0 2.6 9.6 0.00 0.00 0.00 66 1011.8
20260506152551 77 45 3.5 9.6 0.00 0.00 0.00 64 1012.1
20260506151529 77 315 3.5 7.0 0.00 0.00 0.00 64 1012.2
20260506151019 76 68 3.5 7.8 0.00 0.00 0.00 63 1012.2
20260506150510 76 23 3.5 7.8 0.00 0.00 0.00 66 1012.4
20260506150001 76 113 2.6 5.2 0.00 0.00 0.00 64 1012.6
20260506145450 76 0 1.7 6.1 0.00 0.00 0.00 65 1012.9